Portada
METAR-TAF:

METAR-TAF

Aeropuertos :

Chichén Itzá, México

Aeropuerto Internacional de Kaua

latitud: 20-38-30N, longitud: 088-26-58W, altitud: 31 m

Observación

El informe se hizo hace 1 hora y 35 minutos, a las 19:45 UTC
Viento calma
Temperatura 30°C
Humedad 79%
Presión 1012 hPa
Visibilidad: 11.3 km
Nubes dispersas a una altura de 2000 ft
Cielo nuboso a una altura de 20000 ft

METAR: MMCT 211945Z 00000KT 7SM SCT020 BKN200 30/26 A2988 RMK 8/208 MSGTX MMMD

Hora: 16:20 (21:20 UTC)


TAF: falta

Observaciones y pronósticos meteorológicos de más de 4000 aeropuertos (mensajes METAR y TAF).

Los puntos amarillos y rojos representan las estaciones disponibles.

Ponga el ratón en el punto deseado para ver el nombre de la estación.

Haga clic para ver las observaciones y los pronósticos meteorológicos.

Para cambiar el mapa : haga clic en los botones verdes con una cruz de color negro para hacer un zoom, en el botón verde con un guión para alejar o en las flechas verdes para mapas adyacentes.


METAR-TAF: